BAW618 EGLL-LICJ

Flight info

Callsign BAW618
Flight time N/A
Altitude 37000
Route MODMI M185 MID L612 BOGNA UL612 OGULO DCT OKASI DCT OKEKO DCT MOU DCT MADIV DCT MOKIP DCT TUFTA DCT KOGAS DCT MEDAM DCT NITAM DCT MOGBO DCT BAKRO DCT GIANO
Aircraft A21N/M-SDE2E3FGHIJ1RWXY/LB1

Departure

Time 2026-05-07 15:46
Airport London Heathrow Airport (EGLL)

Arrival

Time N/A
Airport Falcone–Borsellino Airport (LICJ)
Time Latitude Longitude Altitude Speed Heading
2026-05-07 15:04 51.47187 -0.48592 92 ft 0 kts 269°
2026-05-07 15:34 51.47188 -0.48580 91 ft 2 kts 269°
2026-05-07 15:35 51.47188 -0.48548 91 ft 3 kts 269°
2026-05-07 15:35 51.47188 -0.48516 91 ft 3 kts 264°
2026-05-07 15:35 51.47193 -0.48488 91 ft 3 kts 232°
2026-05-07 15:35 51.47205 -0.48473 92 ft 2 kts 185°
2026-05-07 15:36 51.47216 -0.48473 91 ft 2 kts 179°
2026-05-07 15:36 51.47231 -0.48473 91 ft 1 kts 179°
2026-05-07 15:36 51.47232 -0.48473 91 ft 0 kts 179°
2026-05-07 15:42 51.47230 -0.48473 91 ft 1 kts 179°
2026-05-07 15:42 51.47208 -0.48473 91 ft 5 kts 180°
2026-05-07 15:43 51.47162 -0.48473 91 ft 8 kts 180°
2026-05-07 15:43 51.47099 -0.48472 91 ft 10 kts 180°
2026-05-07 15:43 51.47019 -0.48473 91 ft 12 kts 179°
2026-05-07 15:43 51.46929 -0.48468 91 ft 14 kts 177°
2026-05-07 15:44 51.46831 -0.48468 92 ft 12 kts 182°
2026-05-07 15:44 51.46752 -0.48470 92 ft 12 kts 180°
2026-05-07 15:44 51.46662 -0.48468 92 ft 14 kts 180°
2026-05-07 15:44 51.46560 -0.48467 92 ft 16 kts 179°
2026-05-07 15:45 51.46493 -0.48458 93 ft 8 kts 139°
2026-05-07 15:45 51.46478 -0.48363 92 ft 6 kts 90°
2026-05-07 15:45 51.46478 -0.48329 93 ft 13 kts 89°
2026-05-07 15:45 51.46481 -0.47782 92 ft 85 kts 89°
2026-05-07 15:46 51.46492 -0.44535 340 ft 195 kts 89°
2026-05-07 15:46 51.46515 -0.42256 1260 ft 213 kts 89°
2026-05-07 15:46 51.46513 -0.39751 2058 ft 238 kts 97°
2026-05-07 15:47 51.45944 -0.37108 2821 ft 267 kts 129°
2026-05-07 15:47 51.44493 -0.35395 3975 ft 268 kts 160°
2026-05-07 15:47 51.42662 -0.35061 4784 ft 269 kts 184°
2026-05-07 15:47 51.40750 -0.35294 5449 ft 272 kts 186°
2026-05-07 15:48 51.38914 -0.35849 5713 ft 274 kts 202°
2026-05-07 15:48 51.37225 -0.37252 5837 ft 275 kts 210°
2026-05-07 15:48 51.35544 -0.38753 5943 ft 278 kts 208°
2026-05-07 15:48 51.33812 -0.40215 6017 ft 282 kts 207°
2026-05-07 15:49 51.32069 -0.41621 6422 ft 279 kts 206°
2026-05-07 15:49 51.30329 -0.43018 7422 ft 279 kts 206°
2026-05-07 15:49 51.28585 -0.44409 8613 ft 278 kts 206°
2026-05-07 15:49 51.26844 -0.45795 9867 ft 281 kts 206°
2026-05-07 15:50 51.25035 -0.47249 10825 ft 306 kts 206°
2026-05-07 15:50 51.23034 -0.48853 11412 ft 344 kts 206°
2026-05-07 15:50 51.20816 -0.50591 12570 ft 367 kts 205°
2026-05-07 15:50 51.18446 -0.52413 13772 ft 390 kts 205°
2026-05-07 15:51 51.15929 -0.54348 14794 ft 413 kts 206°
2026-05-07 15:51 51.13307 -0.56367 15772 ft 415 kts 206°
2026-05-07 15:51 51.10733 -0.58325 16596 ft 404 kts 204°
2026-05-07 15:51 51.08107 -0.59674 17507 ft 390 kts 192°
2026-05-07 15:52 51.05415 -0.59956 18475 ft 391 kts 178°
2026-05-07 15:52 51.02717 -0.59134 19374 ft 400 kts 163°
2026-05-07 15:52 51.00189 -0.57201 20288 ft 408 kts 149°
2026-05-07 15:52 50.97813 -0.54644 21249 ft 415 kts 147°
2026-05-07 15:53 50.95432 -0.51998 22220 ft 422 kts 147°
2026-05-07 15:53 50.93010 -0.49349 23201 ft 429 kts 148°
2026-05-07 15:53 50.90515 -0.46661 24095 ft 436 kts 148°
2026-05-07 15:53 50.87987 -0.43967 24904 ft 441 kts 148°
2026-05-07 15:54 50.85416 -0.41241 25719 ft 446 kts 148°
2026-05-07 15:54 50.82819 -0.38493 26509 ft 452 kts 148°
2026-05-07 15:54 50.80220 -0.35746 27257 ft 458 kts 148°
2026-05-07 15:54 50.77545 -0.32922 27987 ft 464 kts 148°
2026-05-07 15:55 50.74848 -0.30079 28660 ft 470 kts 149°
2026-05-07 15:55 50.72108 -0.27192 29271 ft 475 kts 149°
2026-05-07 15:55 50.69337 -0.24279 29827 ft 480 kts 149°
2026-05-07 15:55 50.66561 -0.21368 30275 ft 481 kts 149°
2026-05-07 15:56 50.63774 -0.18445 30641 ft 480 kts 149°
2026-05-07 15:56 50.60991 -0.15529 30972 ft 480 kts 149°
2026-05-07 15:56 50.58188 -0.12598 31157 ft 485 kts 149°
2026-05-07 15:56 50.55412 -0.09701 31613 ft 481 kts 149°
2026-05-07 15:57 50.52733 -0.06896 32612 ft 465 kts 149°
2026-05-07 15:57 50.50085 -0.04110 33708 ft 449 kts 149°
2026-05-07 15:57 50.47485 -0.01367 34693 ft 455 kts 149°
2026-05-07 15:57 50.44809 0.01448 35492 ft 468 kts 149°
2026-05-07 15:58 50.42044 0.04338 35812 ft 480 kts 149°
2026-05-07 15:58 50.39317 0.07176 37024 ft 461 kts 149°
2026-05-07 15:58 50.36652 0.09944 37535 ft 460 kts 149°
2026-05-07 15:58 50.33967 0.12727 37784 ft 468 kts 149°
2026-05-07 15:59 50.31230 0.15553 37856 ft 480 kts 149°
2026-05-07 15:59 50.25560 0.21394 37884 ft 492 kts 149°
2026-05-07 15:59 50.22712 0.24335 38008 ft 495 kts 149°
2026-05-07 16:00 50.19839 0.27328 38222 ft 497 kts 148°
2026-05-07 16:00 50.17351 0.29972 38604 ft 495 kts 148°